TimeCDT,TemperatureF,Dew PointF,Humidity,Sea Level PressureIn,VisibilityMPH,Wind Direction,Wind SpeedMPH,Gust SpeedMPH,PrecipitationIn,Events,Conditions,WindDirDegrees,DateUTC
12:15 AM,30.2,28.4,93,30.24,10.0,SW,3.5,-,N/A,,Overcast,230,2013-03-27 05:15:00
12:35 AM,30.2,28.4,93,30.24,10.0,Calm,Calm,-,N/A,,Overcast,0,2013-03-27 05:35:00
12:55 AM,30.2,28.4,93,30.24,10.0,SW,3.5,-,N/A,,Overcast,220,2013-03-27 05:55:00
1:15 AM,32.0,28.4,87,30.24,10.0,SW,3.5,-,N/A,,Overcast,220,2013-03-27 06:15:00
1:35 AM,30.2,28.4,93,30.24,10.0,SW,3.5,-,N/A,,Overcast,220,2013-03-27 06:35:00
1:55 AM,32.0,28.4,87,30.24,10.0,SW,3.5,-,N/A,,Overcast,220,2013-03-27 06:55:00
2:15 AM,32.0,28.4,87,30.24,10.0,SW,3.5,-,N/A,,Overcast,230,2013-03-27 07:15:00
2:35 AM,32.0,28.4,87,30.24,10.0,WSW,4.6,-,N/A,,Overcast,240,2013-03-27 07:35:00
2:55 AM,32.0,28.4,87,30.24,10.0,WSW,4.6,-,N/A,,Overcast,250,2013-03-27 07:55:00
3:15 AM,33.8,28.4,81,30.24,10.0,West,3.5,-,N/A,,Overcast,280,2013-03-27 08:15:00
3:35 AM,33.8,28.4,81,30.24,10.0,West,4.6,-,N/A,,Overcast,270,2013-03-27 08:35:00
3:55 AM,33.8,28.4,81,30.24,10.0,West,5.8,-,N/A,,Overcast,280,2013-03-27 08:55:00
4:15 AM,33.8,28.4,81,30.24,10.0,WNW,6.9,-,N/A,,Overcast,290,2013-03-27 09:15:00
4:35 AM,33.8,28.4,81,30.24,10.0,WNW,4.6,-,N/A,,Overcast,290,2013-03-27 09:35:00
4:55 AM,33.8,28.4,81,30.24,10.0,WNW,3.5,-,N/A,,Overcast,290,2013-03-27 09:55:00
5:15 AM,33.8,28.4,81,30.24,10.0,WNW,5.8,-,N/A,,Overcast,290,2013-03-27 10:15:00
5:35 AM,33.8,26.6,75,30.24,10.0,WNW,5.8,-,N/A,,Overcast,300,2013-03-27 10:35:00
5:55 AM,33.8,28.4,81,30.24,10.0,WNW,5.8,-,N/A,,Overcast,290,2013-03-27 10:55:00
6:15 AM,33.8,28.4,81,30.25,10.0,WNW,4.6,-,N/A,,Overcast,300,2013-03-27 11:15:00
6:35 AM,32.0,28.4,87,30.25,10.0,West,4.6,-,N/A,,Overcast,280,2013-03-27 11:35:00
6:55 AM,33.8,28.4,81,30.26,10.0,West,4.6,-,N/A,,Overcast,280,2013-03-27 11:55:00
7:15 AM,33.8,28.4,81,30.26,10.0,West,4.6,-,N/A,,Overcast,280,2013-03-27 12:15:00
7:35 AM,33.8,28.4,81,30.27,10.0,West,4.6,-,N/A,,Overcast,280,2013-03-27 12:35:00
7:55 AM,33.8,28.4,81,30.28,10.0,WNW,5.8,-,N/A,,Overcast,290,2013-03-27 12:55:00
8:15 AM,35.6,28.4,75,30.28,10.0,West,4.6,-,N/A,,Overcast,280,2013-03-27 13:15:00
8:35 AM,35.6,28.4,75,30.29,10.0,WNW,6.9,-,N/A,,Overcast,290,2013-03-27 13:35:00
8:55 AM,35.6,28.4,75,30.29,10.0,WNW,5.8,-,N/A,,Overcast,290,2013-03-27 13:55:00
9:15 AM,35.6,28.4,75,30.29,10.0,WNW,8.1,-,N/A,,Overcast,300,2013-03-27 14:15:00
9:35 AM,35.6,28.4,75,30.29,10.0,NW,5.8,-,N/A,,Overcast,310,2013-03-27 14:35:00
9:55 AM,37.4,28.4,70,30.29,10.0,NW,9.2,-,N/A,,Overcast,320,2013-03-27 14:55:00
10:15 AM,37.4,28.4,70,30.30,10.0,NW,4.6,-,N/A,,Overcast,320,2013-03-27 15:15:00
10:35 AM,37.4,28.4,70,30.30,10.0,NNW,9.2,-,N/A,,Overcast,340,2013-03-27 15:35:00
10:55 AM,41.0,30.2,65,30.30,10.0,NW,4.6,-,N/A,,Overcast,310,2013-03-27 15:55:00
11:15 AM,39.2,28.4,65,30.30,10.0,North,6.9,-,N/A,,Overcast,350,2013-03-27 16:15:00
11:35 AM,41.0,28.4,61,30.30,10.0,NW,8.1,-,N/A,,Overcast,310,2013-03-27 16:35:00
11:55 AM,41.0,28.4,61,30.31,10.0,WNW,8.1,-,N/A,,Overcast,300,2013-03-27 16:55:00
12:15 PM,41.0,28.4,61,30.31,10.0,West,8.1,-,N/A,,Overcast,280,2013-03-27 17:15:00
12:35 PM,41.0,28.4,61,30.31,10.0,WNW,9.2,-,N/A,,Overcast,300,2013-03-27 17:35:00
12:55 PM,41.0,28.4,61,30.31,10.0,NW,8.1,-,N/A,,Overcast,320,2013-03-27 17:55:00
1:15 PM,41.0,24.8,53,30.31,10.0,NW,6.9,-,N/A,,Overcast,320,2013-03-27 18:15:00
1:35 PM,41.0,26.6,57,30.31,10.0,NW,6.9,-,N/A,,Overcast,320,2013-03-27 18:35:00
1:55 PM,41.0,23.0,49,30.30,10.0,NNW,9.2,-,N/A,,Overcast,330,2013-03-27 18:55:00
2:15 PM,41.0,23.0,49,30.30,10.0,NNW,9.2,-,N/A,,Overcast,330,2013-03-27 19:15:00
2:35 PM,41.0,23.0,49,30.30,10.0,NNW,6.9,-,N/A,,Overcast,330,2013-03-27 19:35:00
2:55 PM,41.0,21.2,45,30.30,10.0,NW,8.1,-,N/A,,Overcast,320,2013-03-27 19:55:00
3:15 PM,41.0,19.4,42,30.30,10.0,NNW,8.1,-,N/A,,Overcast,340,2013-03-27 20:15:00
3:35 PM,41.0,17.6,39,30.29,10.0,NNW,9.2,-,N/A,,Overcast,340,2013-03-27 20:35:00
3:55 PM,41.0,15.8,36,30.29,10.0,NW,6.9,-,N/A,,Overcast,320,2013-03-27 20:55:00
4:15 PM,39.2,14.0,36,30.29,10.0,North,6.9,-,N/A,,Overcast,350,2013-03-27 21:15:00
4:35 PM,39.2,14.0,36,30.29,10.0,North,9.2,-,N/A,,Overcast,360,2013-03-27 21:35:00
4:55 PM,39.2,15.8,39,30.29,10.0,North,6.9,-,N/A,,Overcast,350,2013-03-27 21:55:00
5:15 PM,37.4,15.8,41,30.29,10.0,NNW,5.8,-,N/A,,Overcast,340,2013-03-27 22:15:00
5:35 PM,37.4,15.8,41,30.29,10.0,NNW,4.6,-,N/A,,Overcast,330,2013-03-27 22:35:00
5:55 PM,37.4,14.0,38,30.29,10.0,Calm,Calm,-,N/A,,Overcast,0,2013-03-27 22:55:00
6:15 PM,37.4,15.8,41,30.29,10.0,NNW,3.5,-,N/A,,Overcast,340,2013-03-27 23:15:00
6:35 PM,35.6,14.0,41,30.29,10.0,Calm,Calm,-,N/A,,Mostly Cloudy,0,2013-03-27 23:35:00
6:55 PM,35.6,14.0,41,30.29,10.0,Calm,Calm,-,N/A,,Mostly Cloudy,0,2013-03-27 23:55:00
7:15 PM,35.6,15.8,44,30.29,10.0,Calm,Calm,-,N/A,,Mostly Cloudy,0,2013-03-28 00:15:00
7:35 PM,33.8,15.8,48,30.29,10.0,Calm,Calm,-,N/A,,Scattered Clouds,0,2013-03-28 00:35:00
7:55 PM,32.0,17.6,55,30.29,10.0,Calm,Calm,-,N/A,,Clear,0,2013-03-28 00:55:00
8:15 PM,32.0,15.8,51,30.30,10.0,Calm,Calm,-,N/A,,Clear,0,2013-03-28 01:15:00
8:35 PM,32.0,17.6,55,30.30,10.0,Calm,Calm,-,N/A,,Clear,0,2013-03-28 01:35:00
8:55 PM,30.2,19.4,64,30.30,10.0,Calm,Calm,-,N/A,,Clear,0,2013-03-28 01:55:00
9:15 PM,30.2,19.4,64,30.30,10.0,Calm,Calm,-,N/A,,Clear,0,2013-03-28 02:15:00
9:35 PM,30.2,19.4,64,30.31,10.0,Calm,Calm,-,N/A,,Clear,0,2013-03-28 02:35:00
9:55 PM,30.2,19.4,64,30.31,10.0,Calm,Calm,-,N/A,,Clear,0,2013-03-28 02:55:00
10:15 PM,28.4,19.4,69,30.31,10.0,Calm,Calm,-,N/A,,Clear,0,2013-03-28 03:15:00
10:35 PM,28.4,19.4,69,30.31,10.0,Calm,Calm,-,N/A,,Clear,0,2013-03-28 03:35:00
10:55 PM,28.4,19.4,69,30.31,10.0,Calm,Calm,-,N/A,,Clear,0,2013-03-28 03:55:00
11:15 PM,26.6,19.4,74,30.31,10.0,Calm,Calm,-,N/A,,Clear,0,2013-03-28 04:15:00
11:35 PM,26.6,21.2,80,30.31,10.0,Calm,Calm,-,N/A,,Clear,0,2013-03-28 04:35:00
11:55 PM,26.6,21.2,80,30.30,10.0,Calm,Calm,-,N/A,,Clear,0,2013-03-28 04:55:00